Lynchburg, VA

3:49 AM EST on December 04, 2016 (GMT -0500)
Lynchburg Regional-Glenn

Weather History for KLYH - January, 2012

Change the Weather History Date:

Sunday, January 29, 2012

  Actual Average Record
Temperature  
Mean Temperature 35 °F 36 °F  
Max Temperature 49 °F 46 °F 75 °F (1975)
Min Temperature 21 °F 25 °F 4 °F (2000)
Degree Days  
Heating Degree Days 30 29  
Month to date heating degree days 757 867  
Since 1 July heating degree days 2219 2612  
Cooling Degree Days 0 0  
Month to date cooling degree days 0 0  
Year to date cooling degree days 0 0  
Moisture  
Dew Point 11 °F    
Average Humidity 42    
Maximum Humidity 68    
Minimum Humidity 15    
Precipitation  
Precipitation 0.00 in 0.10 in 0.98 in (1912)
Month to date precipitation 2.22 2.93  
Year to date precipitation 2.22 2.93  
Snow  
Snow 0.00 in - - ()
Month to date snowfall 0.0  
Since 1 July snowfall T  
Snow Depth 0.00 in    
Sea Level Pressure  
Sea Level Pressure 30.25 in    
Wind  
Wind Speed 6 mph (WSW)    
Max Wind Speed 16 mph    
Max Gust Speed 25 mph    
Visibility 10 miles    
Events      
T = Trace of Precipitation, MM = Missing Value Source: NWS Daily Summary

Daily Weather History Graph

Daily Weather History Graph

Search for Another Location

Airport or City:

Trip Planner

Search our weather history database for the weather conditions in past years. The results will help you decide how hot, cold, wet, or windy it might be!

Date:

Astronomy

Jan. 29, 2012 Rise Set
Actual Time 7:22 AM EST 5:37 PM EST
Civil Twilight 6:55 AM EST 6:05 PM EST
Nautical Twilight 6:23 AM EST 6:36 PM EST
Astronomical Twilight 5:52 AM EST 7:07 PM EST
Moon 10:22 AM EST (1/29) No Moon Set
Length of Visible Light 11h 10m
Length of Day
10h 14m
Waxing Crescent, 36% of the Moon is Illuminated
Jan 29
Waxing Crescent
Jan 30
First Quarter
Feb 7
Full
Feb 14
Last Quarter
Feb 21
New

Hourly Weather History & Observations

Time (EST) Temp. Windchill Dew Point Humidity Pressure Visibility Wind Dir Wind Speed Gust Speed Precip Events Conditions
12:54 AM 37.0 °F - 12.0 °F 36% 30.23 in 10.0 mi Calm Calm - N/A   Clear
1:54 AM 35.1 °F - 12.9 °F 40% 30.24 in 10.0 mi Calm Calm - N/A   Clear
2:54 AM 30.0 °F - 15.1 °F 54% 30.26 in 10.0 mi Calm Calm - N/A   Clear
3:54 AM 26.1 °F - 16.0 °F 66% 30.27 in 10.0 mi Calm Calm - N/A   Clear
4:54 AM 25.0 °F - 15.1 °F 66% 30.28 in 10.0 mi Calm Calm - N/A   Clear
5:54 AM 24.1 °F - 15.1 °F 69% 30.30 in 10.0 mi Calm Calm - N/A   Clear
6:54 AM 24.1 °F - 15.1 °F 69% 30.32 in 10.0 mi Calm Calm - N/A   Clear
7:54 AM 28.9 °F 25.2 °F 16.0 °F 58% 30.33 in 10.0 mi West 3.5 mph - N/A   Clear
8:54 AM 37.0 °F 34.5 °F 15.1 °F 41% 30.34 in 10.0 mi Variable 3.5 mph - N/A   Clear
9:54 AM 39.0 °F 34.0 °F 14.0 °F 36% 30.34 in 10.0 mi Variable 6.9 mph - N/A   Clear
10:54 AM 42.1 °F 36.1 °F 10.0 °F 27% 30.34 in 10.0 mi WSW 10.4 mph - N/A   Clear
11:54 AM 45.0 °F 41.8 °F 10.9 °F 25% 30.32 in 10.0 mi Variable 5.8 mph - N/A   Clear
12:54 PM 46.9 °F - 9.0 °F 21% 30.27 in 10.0 mi WSW 10.4 mph 17.3 mph N/A   Clear
1:54 PM 48.0 °F - 9.0 °F 21% 30.23 in 10.0 mi SW 8.1 mph 19.6 mph N/A   Clear
2:54 PM 48.0 °F - 6.1 °F 18% 30.20 in 10.0 mi WSW 8.1 mph 18.4 mph N/A   Clear
3:54 PM 48.0 °F - 3.0 °F 16% 30.19 in 10.0 mi West 10.4 mph 18.4 mph N/A   Clear
4:54 PM 46.9 °F - 5.0 °F 18% 30.18 in 10.0 mi WSW 12.7 mph 21.9 mph N/A   Clear
5:54 PM 44.1 °F 40.1 °F 7.0 °F 22% 30.18 in 10.0 mi WSW 6.9 mph - N/A   Clear
6:54 PM 43.0 °F 38.8 °F 9.0 °F 25% 30.20 in 10.0 mi SW 6.9 mph - N/A   Clear
7:54 PM 43.0 °F 37.7 °F 10.0 °F 26% 30.18 in 10.0 mi SW 9.2 mph 19.6 mph N/A   Clear
8:54 PM 43.0 °F 38.2 °F 10.0 °F 26% 30.18 in 10.0 mi SW 8.1 mph 17.3 mph N/A   Clear
9:54 PM 42.1 °F 36.1 °F 10.9 °F 28% 30.17 in 10.0 mi SW 10.4 mph 18.4 mph N/A   Clear
10:54 PM 42.1 °F 36.6 °F 12.0 °F 29% 30.17 in 10.0 mi SW 9.2 mph - N/A   Clear
11:54 PM 39.2 °F 35.9 °F 12.2 °F 33% 30.18 in 10.0 mi SSW 4.6 mph - N/A   Clear